FW9957 Weather Reports


time (UTC)temp
C
wind
direction
speed
KPH
gust
KPH
rain 1hr
cm
rain 24hr
cm
rain mn
cm
humidity
%
barometer
mb
20260504140916 18 253 0.0 0.0 0.00 0.00 0.00 72 1015.0
20260504140412 17 257 0.0 0.0 0.00 0.00 0.00 74 1014.7
20260504130337 15 248 0.0 0.0 0.00 0.00 0.00 78 1014.6
20260504120300 12 252 0.0 0.0 0.00 0.00 0.00 93 1014.4
20260504110224 11 243 0.0 0.0 0.00 0.00 0.00 92 1014.2
20260504100142 12 254 0.0 0.0 0.00 0.00 0.00 91 1014.1
20260504090105 12 246 0.0 0.0 0.00 0.00 0.00 90 1014.2
20260504081535 12 255 0.0 0.0 0.00 0.00 0.00 89 1014.0
20260504081031 12 250 0.0 0.0 0.00 0.00 0.00 89 1014.1
20260504080528 12 252 0.0 0.0 0.00 0.00 0.00 89 1014.1
20260504050340 15 246 0.0 0.0 0.00 0.00 0.00 86 1015.5
20260504045838 15 248 0.0 0.0 0.00 0.00 0.00 85 1015.9
20260504045332 15 250 0.0 0.0 0.00 0.00 0.00 85 1015.6
20260504044829 15 248 0.0 0.0 0.00 0.00 0.00 85 1015.7
20260504044327 15 246 0.0 0.0 0.00 0.00 0.00 85 1015.7
20260504043824 15 245 0.0 0.0 0.00 0.00 0.00 85 1015.7
20260504043321 15 238 0.0 0.0 0.00 0.00 0.00 85 1015.6
20260504042818 15 235 0.0 0.0 0.00 0.00 0.00 85 1015.7
20260504042314 15 246 0.0 0.0 0.00 0.00 0.00 85 1015.8
20260504041811 15 247 0.0 0.0 0.00 0.00 0.00 84 1015.7
20260504041307 15 244 0.0 0.0 0.00 0.00 0.00 83 1015.7
20260504040803 15 228 0.0 0.0 0.00 0.00 0.00 82 1015.7
20260504040301 15 254 0.0 0.0 0.00 0.00 0.00 82 1015.7
20260504035757 15 254 0.0 0.0 0.00 0.00 0.00 83 1015.7
20260504035254 15 254 0.0 0.0 0.00 0.00 0.00 83 1015.8
20260504034751 15 249 0.0 0.0 0.00 0.00 0.00 82 1015.8
20260504034249 15 249 0.0 0.0 0.00 0.00 0.00 82 1015.7
20260504033746 16 247 0.0 0.0 0.00 0.00 0.00 81 1015.9
20260504033244 16 251 0.0 0.0 0.00 0.00 0.00 81 1015.9
20260504032740 16 243 0.0 0.0 0.00 0.00 0.00 81 1015.6
20260504032237 16 242 0.0 0.0 0.00 0.00 0.00 81 1015.6
20260504031734 16 246 0.0 0.0 0.00 0.00 0.00 81 1015.9
20260504031232 16 246 0.0 0.0 0.00 0.00 0.00 80 1015.7
20260504030727 16 242 0.0 0.0 0.00 0.00 0.00 80 1016.0
20260504030225 16 245 0.0 0.0 0.00 0.00 0.00 79 1015.9
20260504025721 16 246 0.0 0.0 0.00 0.00 0.00 79 1015.9
20260504025218 16 253 0.0 0.0 0.00 0.00 0.00 79 1015.9
20260504024715 16 245 0.0 0.0 0.00 0.00 0.00 78 1015.8
20260504024211 16 244 0.0 0.0 0.00 0.00 0.00 77 1015.8
20260504023708 16 245 0.0 0.0 0.00 0.00 0.00 77 1015.7
20260504023204 17 244 0.0 0.0 0.00 0.00 0.00 76 1015.7
20260504022700 17 247 0.0 0.0 0.00 0.00 0.00 76 1015.6
20260504022156 17 244 0.0 0.0 0.00 0.00 0.00 76 1015.7
20260504021655 17 239 0.0 0.0 0.00 0.00 0.00 76 1015.7
20260504021151 17 250 0.0 0.0 0.00 0.00 0.00 75 1015.5
20260504020648 17 242 0.0 0.0 0.00 0.00 0.00 74 1015.4
20260504020144 17 248 0.0 0.0 0.00 0.00 0.00 74 1015.4
20260504015641 17 247 0.0 0.0 0.00 0.00 0.00 73 1015.3
20260504015137 17 243 0.0 0.0 0.00 0.00 0.00 72 1015.5
20260504014633 17 254 0.0 0.0 0.00 0.00 0.00 72 1015.3
20260504014130 18 249 0.0 0.0 0.00 0.00 0.00 69 1015.6
20260504013628 18 240 0.0 0.0 0.00 0.00 0.00 68 1015.4
20260504013124 18 243 0.0 0.0 0.00 0.00 0.00 66 1015.3
20260504012622 18 248 0.0 0.0 0.00 0.00 0.00 66 1015.5
20260504012120 19 246 0.0 0.0 0.00 0.00 0.00 64 1015.4
20260504011616 19 248 0.0 0.0 0.00 0.00 0.00 63 1015.4
20260504011113 20 248 0.0 0.0 0.00 0.00 0.00 64 1015.2
20260504010608 20 255 0.0 0.0 0.00 0.00 0.00 63 1015.0
20260504010105 20 255 0.0 0.0 0.00 0.00 0.00 62 1015.1
20260504005601 20 255 0.0 0.0 0.00 0.00 0.00 61 1014.9
20260504005059 20 255 0.0 0.0 0.00 0.00 0.00 61 1015.1
20260504004556 21 255 0.0 0.0 0.00 0.00 0.00 59 1014.9
20260504004053 21 255 0.0 0.0 0.00 0.00 0.00 56 1014.8
20260504003549 21 255 0.0 0.0 0.00 0.00 0.00 56 1015.0
20260504003046 21 255 0.0 0.0 0.00 0.00 0.00 54 1014.9
20260504002543 22 255 0.0 0.0 0.00 0.00 0.00 54 1014.9
20260504002041 22 255 0.0 0.0 0.00 0.00 0.00 51 1014.7
20260504001538 22 255 0.0 0.0 0.00 0.00 0.00 50 1014.9
20260504001034 22 255 0.0 0.0 0.00 0.00 0.00 50 1014.7
20260504000532 22 255 0.0 0.0 0.00 0.00 0.00 49 1014.9
20260504000029 22 255 0.0 0.0 0.00 0.00 0.00 50 1014.7
20260503235527 22 255 0.0 0.0 0.00 0.00 0.00 50 1014.7
20260503235024 22 255 0.0 0.0 0.00 0.00 0.00 48 1014.7
20260503234521 22 256 0.0 0.0 0.00 0.00 0.00 50 1014.9
20260503234020 22 256 0.0 0.0 0.00 0.00 0.00 49 1014.6
20260503233515 22 256 0.0 0.0 0.00 0.00 0.00 51 1014.8
20260503233011 23 254 0.0 0.0 0.00 0.00 0.00 47 1014.9
20260503232508 23 255 0.0 0.0 0.00 0.00 0.00 47 1014.8
20260503232001 23 255 0.0 0.0 0.00 0.00 0.00 46 1014.9
20260503231458 23 256 0.0 0.0 0.00 0.00 0.00 45 1014.9
20260503230954 23 255 0.0 0.0 0.00 0.00 0.00 46 1014.9
20260503230451 23 256 0.0 0.0 0.00 0.00 0.00 47 1015.0
20260503225949 23 249 0.0 0.0 0.00 0.00 0.00 46 1015.1
20260503225445 23 248 0.0 0.0 0.00 0.00 0.00 46 1015.0
20260503224941 23 250 0.0 0.0 0.00 0.00 0.00 48 1015.2
20260503224438 23 255 0.0 0.0 0.00 0.00 0.00 45 1015.1
20260503223936 23 270 0.0 0.0 0.00 0.00 0.00 45 1015.1
20260503223433 23 254 0.0 0.0 0.00 0.00 0.00 43 1014.9
20260503222928 23 254 0.0 0.0 0.00 0.00 0.00 44 1015.1
20260503222427 23 262 0.0 0.0 0.00 0.00 0.00 44 1015.1
20260503221925 23 270 1.6 3.2 0.00 0.00 0.00 44 1015.0
20260503221423 23 250 0.0 0.0 0.00 0.00 0.00 44 1015.2
20260503220920 23 253 0.0 0.0 0.00 0.00 0.00 45 1015.2
20260503220416 23 252 0.0 1.6 0.00 0.00 0.00 46 1015.4
20260503215913 24 248 0.0 0.0 0.00 0.00 0.00 43 1015.4
20260503215410 24 253 0.0 0.0 0.00 0.00 0.00 44 1015.4
20260503214908 23 257 0.0 0.0 0.00 0.00 0.00 44 1015.5
20260503214405 23 255 0.0 0.0 0.00 0.00 0.00 42 1015.6
20260503213902 23 249 0.0 0.0 0.00 0.00 0.00 41 1015.5
20260503213400 23 248 3.2 3.2 0.00 0.00 0.00 42 1015.6
20260503212856 23 247 0.0 0.0 0.00 0.00 0.00 42 1015.8
20260503212355 23 252 0.0 0.0 0.00 0.00 0.00 42 1015.8
20260503211851 23 251 0.0 0.0 0.00 0.00 0.00 41 1015.7
20260503211348 23 253 0.0 0.0 0.00 0.00 0.00 42 1015.7
20260503210843 23 254 0.0 0.0 0.00 0.00 0.00 42 1016.0
20260503210341 23 280 3.2 4.8 0.00 0.00 0.00 40 1016.1
20260503205836 23 254 0.0 0.0 0.00 0.00 0.00 44 1016.1
20260503205332 23 264 1.6 3.2 0.00 0.00 0.00 41 1016.2
20260503204829 23 246 0.0 0.0 0.00 0.00 0.00 44 1016.3
20260503204327 23 253 0.0 0.0 0.00 0.00 0.00 43 1016.4
20260503203824 23 256 0.0 0.0 0.00 0.00 0.00 41 1016.4
20260503203321 23 315 3.2 6.4 0.00 0.00 0.00 39 1016.6
20260503202818 23 261 0.0 0.0 0.00 0.00 0.00 40 1016.4
20260503202316 23 249 0.0 0.0 0.00 0.00 0.00 42 1016.5
20260503201814 23 259 0.0 0.0 0.00 0.00 0.00 41 1016.7
20260503201310 23 249 0.0 0.0 0.00 0.00 0.00 43 1016.8
20260503200808 23 253 0.0 0.0 0.00 0.00 0.00 43 1016.6
20260503200303 23 253 0.0 0.0 0.00 0.00 0.00 42 1016.7
20260503195801 23 261 0.0 0.0 0.00 0.00 0.00 41 1017.0
20260503195258 23 250 0.0 1.6 0.00 0.00 0.00 41 1017.2
20260503194755 23 252 0.0 0.0 0.00 0.00 0.00 41 1017.3
20260503194251 23 271 0.0 0.0 0.00 0.00 0.00 39 1017.1
20260503193747 23 252 0.0 0.0 0.00 0.00 0.00 43 1017.5
20260503193243 23 248 0.0 0.0 0.00 0.00 0.00 41 1017.4
20260503192739 23 239 0.0 0.0 0.00 0.00 0.00 39 1017.4
20260503192234 23 253 0.0 0.0 0.00 0.00 0.00 41 1017.6
20260503191731 23 254 0.0 0.0 0.00 0.00 0.00 40 1017.5
20260503191229 23 255 0.0 0.0 0.00 0.00 0.00 43 1017.5
20260503190725 23 287 0.0 0.0 0.00 0.00 0.00 39 1017.6
20260503190222 22 254 0.0 0.0 0.00 0.00 0.00 40 1017.8
20260503185719 22 224 0.0 0.0 0.00 0.00 0.00 42 1017.7
20260503185215 22 252 0.0 0.0 0.00 0.00 0.00 44 1017.9
20260503184709 22 263 0.0 0.0 0.00 0.00 0.00 41 1018.0
20260503184206 22 250 0.0 0.0 0.00 0.00 0.00 40 1018.1
20260503183703 22 265 3.2 3.2 0.00 0.00 0.00 40 1018.1
20260503183200 22 252 0.0 0.0 0.00 0.00 0.00 42 1018.1
20260503182658 22 258 0.0 0.0 0.00 0.00 0.00 44 1018.3
20260503182156 22 253 0.0 0.0 0.00 0.00 0.00 40 1018.3
20260503181652 22 251 0.0 0.0 0.00 0.00 0.00 43 1018.6
20260503181149 22 247 0.0 0.0 0.00 0.00 0.00 43 1018.6
20260503180646 22 253 0.0 0.0 0.00 0.00 0.00 41 1018.5
20260503180144 22 254 0.0 0.0 0.00 0.00 0.00 42 1018.7
20260503175641 22 251 0.0 0.0 0.00 0.00 0.00 44 1018.5
20260503175138 22 249 0.0 0.0 0.00 0.00 0.00 44 1018.7
20260503174634 22 246 0.0 0.0 0.00 0.00 0.00 45 1019.1
20260503174132 22 239 0.0 0.0 0.00 0.00 0.00 46 1018.8
20260503173627 22 245 0.0 0.0 0.00 0.00 0.00 46 1018.8
20260503173123 21 257 0.0 0.0 0.00 0.00 0.00 44 1019.0
20260503172620 21 237 0.0 0.0 0.00 0.00 0.00 46 1019.1
20260503172118 21 239 0.0 0.0 0.00 0.00 0.00 46 1019.1
20260503171614 21 224 0.0 0.0 0.00 0.00 0.00 47 1019.3
20260503171111 21 254 0.0 0.0 0.00 0.00 0.00 43 1019.4
20260503170609 21 246 0.0 0.0 0.00 0.00 0.00 48 1019.4
20260503170105 21 251 0.0 0.0 0.00 0.00 0.00 47 1019.4
20260503151000 17 247 0.0 0.0 0.00 0.00 0.00 69 1020.2
20260503150456 17 254 0.0 0.0 0.00 0.00 0.00 67 1020.2